Volver al catálogo

FENGYUN 1C DEB

ActivoSSO
NORAD 31246·DEBRIS·🇨🇳 China

Lanzado May 10, 1999 desde Taiyuan Satellite Launch Center

Loading…

Próximos Pases (próximas 24 horas)

TLE

EnvejeciendoSource: Space-Track

Época: Sep 8, 2026, 08:36 UTC

1 31246U 99025BMC 26251.35886673  .00002392  00000-0  12802-2 0  9994
2 31246  98.7949  97.0281 0144120 304.6152  54.1496 14.08908293655474

Sigue FENGYUN 1C DEB en tiempo real con AllMySat

Download on the App Store